When you browse on this site, cookies collect data to enhance your experience and personalize the content and advertising you see.
Visit our Privacy Policy to learn more. By continuing to use the site, you agree to this use of cookies and data.

Hourly Weather Telavi

Today, 9 August, Sunday

Time Temperature Precipitation Wind Pressure Humidity
00:00 +24°C° 0 mm 1 mps 705 mmHg 42%
01:00 +24°C° 0 mm 1 mps 705 mmHg 44%
02:00 +23°C° 0 mm 1 mps 705 mmHg 46%
03:00 +23°C° 0 mm 2 mps 705 mmHg 48%
04:00 +23°C° 0 mm 1 mps 705 mmHg 48%
05:00 +23°C° 0 mm 1 mps 705 mmHg 49%
06:00 +23°C° 0 mm 1 mps 705 mmHg 49%
07:00 +25°C° 0 mm 1 mps 705 mmHg 43%
08:00 +27°C° 0 mm 2 mps 705 mmHg 37%
09:00 +29°C° 0 mm 2 mps 705 mmHg 31%
10:00 +31°C° 0 mm 2 mps 705 mmHg 29%
11:00 +33°C° 0 mm 3 mps 705 mmHg 27%
12:00 +34°C° 0 mm 3 mps 704 mmHg 26%
13:00 +35°C° 0 mm 3 mps 704 mmHg 24%
14:00 +35°C° 0 mm 3 mps 704 mmHg 23%
15:00 +35°C° 0 mm 3 mps 704 mmHg 21%
16:00 +35°C° 0 mm 3 mps 704 mmHg 22%
17:00 +34°C° 0 mm 3 mps 704 mmHg 23%
18:00 +34°C° 0 mm 3 mps 704 mmHg 24%
19:00 +30°C° 0 mm 2 mps 704 mmHg 26%
20:00 +28°C° 0 mm 2 mps 704 mmHg 28%
21:00 +26°C° 0 mm 1 mps 704 mmHg 30%
22:00 +26°C° 0 mm 1 mps 704 mmHg 31%
23:00 +25°C° 0 mm 1 mps 705 mmHg 33%

Tomorrow, 10 August, Monday

Time Temperature Precipitation Wind Pressure Humidity
00:00 +25°C° 0 mm 1 mps 705 mmHg 34%
01:00 +24°C° 0 mm 1 mps 705 mmHg 37%
02:00 +23°C° 0 mm 1 mps 705 mmHg 41%
03:00 +23°C° 0 mm 1 mps 705 mmHg 45%
04:00 +23°C° 0 mm 1 mps 705 mmHg 46%
05:00 +23°C° 0 mm 1 mps 705 mmHg 47%
06:00 +23°C° 0 mm 1 mps 705 mmHg 48%
07:00 +25°C° 0 mm 1 mps 705 mmHg 43%
08:00 +27°C° 0 mm 2 mps 706 mmHg 38%
09:00 +29°C° 0 mm 3 mps 706 mmHg 33%
10:00 +30°C° 0 mm 4 mps 706 mmHg 31%
11:00 +32°C° 0 mm 4 mps 705 mmHg 28%
12:00 +34°C° 0 mm 5 mps 705 mmHg 26%
13:00 +34°C° 0 mm 5 mps 705 mmHg 26%
14:00 +34°C° 0 mm 5 mps 705 mmHg 25%
15:00 +35°C° 0 mm 5 mps 705 mmHg 25%
16:00 +34°C° 0 mm 5 mps 705 mmHg 27%
17:00 +33°C° 0 mm 4 mps 705 mmHg 29%
18:00 +33°C° 0 mm 4 mps 705 mmHg 30%
19:00 +30°C° 0 mm 3 mps 705 mmHg 34%
20:00 +28°C° 0 mm 2 mps 706 mmHg 38%
21:00 +27°C° 0 mm 2 mps 706 mmHg 42%
22:00 +26°C° 0 mm 2 mps 706 mmHg 47%
23:00 +25°C° 0 mm 2 mps 706 mmHg 52%

Day after tomorrow, 11 August, Tuesday

Time Temperature Precipitation Wind Pressure Humidity
00:00 +24°C° 0 mm 3 mps 706 mmHg 57%
01:00 +24°C° 0 mm 2 mps 706 mmHg 58%
02:00 +23°C° 0 mm 1 mps 706 mmHg 59%
03:00 +23°C° 0 mm 1 mps 706 mmHg 60%
04:00 +23°C° 0 mm 1 mps 706 mmHg 61%
05:00 +23°C° 0 mm 1 mps 706 mmHg 62%
06:00 +20°C° 0 mm 0 mps 706 mmHg 63%
07:00 +24°C° 0 mm 1 mps 706 mmHg 57%
08:00 +26°C° 0 mm 1 mps 706 mmHg 51%
09:00 +27°C° 0 mm 2 mps 706 mmHg 45%
10:00 +29°C° 0 mm 2 mps 706 mmHg 41%
11:00 +30°C° 0 mm 3 mps 706 mmHg 36%
12:00 +32°C° 0 mm 4 mps 705 mmHg 32%
13:00 +33°C° 0 mm 4 mps 705 mmHg 31%
14:00 +33°C° 0 mm 4 mps 705 mmHg 30%
15:00 +34°C° 0 mm 4 mps 705 mmHg 29%
16:00 +33°C° 0 mm 3 mps 705 mmHg 31%
17:00 +31°C° 0 mm 3 mps 705 mmHg 33%
18:00 +31°C° 0 mm 3 mps 705 mmHg 35%
19:00 +29°C° 0 mm 3 mps 706 mmHg 40%
20:00 +27°C° 0 mm 2 mps 706 mmHg 46%
21:00 +26°C° 0 mm 2 mps 706 mmHg 52%
22:00 +25°C° 0 mm 3 mps 706 mmHg 54%
23:00 +24°C° 0 mm 3 mps 706 mmHg 57%

12 August, Wednesday

Time Temperature Precipitation Wind Pressure Humidity
00:00 +24°C° 0 mm 3 mps 706 mmHg 60%
01:00 +22°C° 0 mm 3 mps 706 mmHg 62%
02:00 +21°C° 0 mm 2 mps 706 mmHg 64%
03:00 +21°C° 0 mm 2 mps 706 mmHg 66%
04:00 +21°C° 0 mm 2 mps 706 mmHg 67%
05:00 +21°C° 0 mm 2 mps 706 mmHg 67%
06:00 +22°C° 0 mm 1 mps 706 mmHg 67%
07:00 +24°C° 0 mm 2 mps 706 mmHg 60%
08:00 +26°C° 0 mm 2 mps 706 mmHg 53%
09:00 +28°C° 0 mm 2 mps 707 mmHg 46%
10:00 +29°C° 0 mm 2 mps 707 mmHg 41%
11:00 +31°C° 0 mm 2 mps 707 mmHg 37%
12:00 +32°C° 0 mm 1 mps 707 mmHg 33%
13:00 +32°C° 0 mm 1 mps 706 mmHg 31%
14:00 +34°C° 0 mm 2 mps 706 mmHg 30%
15:00 +34°C° 0 mm 2 mps 706 mmHg 28%
16:00 +34°C° 0 mm 2 mps 706 mmHg 30%
17:00 +34°C° 0 mm 2 mps 706 mmHg 31%
18:00 +32°C° 0 mm 2 mps 706 mmHg 32%
19:00 +30°C° 0 mm 2 mps 706 mmHg 38%
20:00 +28°C° 0 mm 3 mps 707 mmHg 44%
21:00 +27°C° 0 mm 3 mps 707 mmHg 50%
22:00 +26°C° 0 mm 3 mps 707 mmHg 52%
23:00 +26°C° 0 mm 2 mps 707 mmHg 53%

13 August, Thursday

Time Temperature Precipitation Wind Pressure Humidity
00:00 +25°C° 0 mm 2 mps 707 mmHg 54%
01:00 +24°C° 0 mm 2 mps 707 mmHg 57%
02:00 +23°C° 0 mm 2 mps 706 mmHg 60%
03:00 +21°C° 0 mm 2 mps 706 mmHg 62%
04:00 +22°C° 0 mm 1 mps 706 mmHg 64%
05:00 +22°C° 0 mm 1 mps 706 mmHg 66%
06:00 +22°C° 0 mm 1 mps 706 mmHg 68%
07:00 +23°C° 0.2 mm 1 mps 706 mmHg 64%
08:00 +24°C° 0.2 mm 1 mps 706 mmHg 59%
09:00 +25°C° 0.2 mm 1 mps 706 mmHg 55%
10:00 +26°C° 0.3 mm 1 mps 706 mmHg 50%
11:00 +28°C° 0.3 mm 2 mps 706 mmHg 45%
12:00 +29°C° 0.3 mm 2 mps 706 mmHg 40%
13:00 +30°C° 0 mm 2 mps 705 mmHg 37%
14:00 +31°C° 0 mm 2 mps 705 mmHg 34%
15:00 +32°C° 0 mm 1 mps 705 mmHg 31%
16:00 +32°C° 0 mm 2 mps 705 mmHg 33%
17:00 +31°C° 0 mm 2 mps 705 mmHg 35%
18:00 +31°C° 0 mm 2 mps 705 mmHg 37%
19:00 +29°C° 0 mm 3 mps 705 mmHg 44%
20:00 +27°C° 0 mm 4 mps 706 mmHg 52%
21:00 +25°C° 0 mm 5 mps 706 mmHg 60%
22:00 +23°C° 0 mm 4 mps 706 mmHg 62%
23:00 +23°C° 0 mm 4 mps 706 mmHg 64%

14 August, Friday

Time Temperature Precipitation Wind Pressure Humidity
00:00 +22°C° 0 mm 3 mps 705 mmHg 66%
01:00 +22°C° 0 mm 3 mps 705 mmHg 67%
02:00 +23°C° 0 mm 2 mps 705 mmHg 68%
03:00 +23°C° 0 mm 2 mps 705 mmHg 69%
04:00 +21°C° 0 mm 2 mps 705 mmHg 70%
05:00 +21°C° 0 mm 2 mps 705 mmHg 70%
06:00 +21°C° 0 mm 2 mps 705 mmHg 71%
07:00 +24°C° 0 mm 3 mps 705 mmHg 63%
08:00 +26°C° 0 mm 3 mps 705 mmHg 55%
09:00 +28°C° 0 mm 3 mps 705 mmHg 47%
10:00 +29°C° 0 mm 3 mps 705 mmHg 43%
11:00 +30°C° 0 mm 3 mps 705 mmHg 39%
12:00 +32°C° 0 mm 2 mps 705 mmHg 34%
13:00 +33°C° 0 mm 3 mps 705 mmHg 33%
14:00 +33°C° 0 mm 3 mps 704 mmHg 32%
15:00 +34°C° 0 mm 3 mps 704 mmHg 31%
16:00 +32°C° 0 mm 4 mps 704 mmHg 34%
17:00 +30°C° 0 mm 6 mps 704 mmHg 36%
18:00 +29°C° 0 mm 7 mps 704 mmHg 39%
19:00 +27°C° 0.2 mm 6 mps 704 mmHg 46%
20:00 +24°C° 0.2 mm 6 mps 705 mmHg 53%
21:00 +22°C° 0.2 mm 6 mps 705 mmHg 60%
22:00 +21°C° 0.1 mm 5 mps 705 mmHg 61%
23:00 +21°C° 0.1 mm 5 mps 705 mmHg 63%
Show more